Location: Estavannens-Dessous
(46.5604°N, 7.1025°E)
Time: 13:49:44
(UTC+00:00)

Daily predictions for brighter satellites

Satellite Brightness Start Highest point End
(mag) Time Altitude Azimuth Time Altitude Azimuth Time Altitude Azimuth
In-Cosmos 22 4.3 16:37:16 10° SSW 16:42:47 82° W 16:48:12 10° N
Cosmos 1943 3.6 16:39:02 10° NNW 16:44:24 40° NE 16:49:42 10° SE
ATLAS 2AS CENTAUR R/B 3.1 16:43:18 10° SW 16:51:16 90° NW 16:59:08 10° NE
Cosmos 1908 3.2 16:47:46 10° N 16:51:40 85° E 16:55:32 10° S
Lacrosse 5 3.0 16:49:44 10° NW 16:54:02 27° N 16:58:19 10° ENE
Cosmos 1634 Rocket 4.0 16:54:31 10° N 17:00:42 62° ENE 17:06:54 10° SSE
Okean-O 3.9 17:00:05 10° ESE 17:03:20 20° ENE 17:06:36 10° NNE
AQUARIUS 4.3 17:00:02 10° SSE 17:04:31 85° WSW 17:09:03 10° NNW
COSMO-SKYMED 1 3.3 17:04:00 10° NNE 17:07:57 33° E 17:11:51 10° SSE
Cosmos 1536 Rocket 3.7 17:04:19 10° SSW 17:08:40 80° W 17:13:07 10° N
Cosmos 2227 Rocket 3.8 17:04:34 10° WSW 17:09:33 31° NW 17:14:34 10° N
Landsat 5 4.0 17:06:08 10° N 17:10:06 58° WNW 17:13:54 10° SSW
Cosmos 1674 3.6 17:07:11 10° SSW 17:10:55 52° WNW 17:14:42 10° N
Okean O Rocket 1.7 17:07:06 10° SSE 17:11:32 83° WSW 17:16:01 10° NNW
RESURS DK-1 2.3 17:07:37 10° SSW 17:11:45 71° ESE 17:15:53 10° NNE
ERS-2 3.4 17:12:03 12° NE 17:14:32 22° E 17:17:24 10° SSE
CZ-4C R/B 4.2 17:13:19 10° N 17:16:17 37° WNW 17:19:13 10° SW
CZ-4B R/B 1.8 17:13:29 10° NNE 17:16:46 42° E 17:19:57 10° S
CZ-4C R/B 2.7 17:17:17 10° WSW 17:22:14 56° NW 17:28:14 10° NE
CZ-4B R/B 3.9 17:18:26 10° S 17:23:52 61° WSW 17:29:26 10° NNW
USA 234 3.9 17:19:06 14° ENE 17:24:13 39° N 17:30:11 10° NW
Cosmos 1844 Rocket 4.1 17:20:55 10° SE 17:24:20 17° E 17:25:29 16° E
Tsikada Rocket 4.4 17:18:29 10° SSW 17:24:47 67° W 17:31:04 10° N
Cosmos 1400 Rocket 4.5 17:23:25 10° NNW 17:27:16 38° W 17:31:03 10° SSW
TIMED 4.4 17:23:43 10° NNW 17:28:05 71° ENE 17:32:27 10° SSE
CZ-2D R/B 3.3 17:24:28 10° SSE 17:28:15 54° ENE 17:32:01 10° N
Cosmos 1354 Rocket 4.0 17:24:36 10° SSW 17:29:55 81° ESE 17:35:17 10° NNE
Meteor 2-5 Rocket 3.6 17:24:25 10° S 17:30:00 81° E 17:35:34 10° NNE
Cosmos 783 Rocket 4.4 17:25:01 10° NNW 17:30:16 77° ENE 17:35:30 10° SSE
SL-14 R/B 3.2 17:26:41 10° S 17:30:32 90° W 17:34:27 10° N
Cosmos 1603 3.8 17:26:51 10° NNW 17:32:36 86° WSW 17:38:19 10° SSE
IRS-1C Rocket 4.1 17:27:42 10° SSE 17:32:51 59° ENE 17:38:01 10° N
Cosmos 2297 Rocket 4.4 17:30:56 10° W 17:34:53 19° NW 17:38:51 10° N
COSMOS 2455 3.5 17:31:46 10° S 17:37:06 34° ESE 17:40:26 20° ENE
Cosmos 2142 Rocket 4.4 17:31:05 10° N 17:37:18 82° E 17:43:26 10° S
ATLAS 3B R/B 3.2 17:32:47 10° NW 17:39:40 65° WSW 17:46:49 10° SSE
YAOGAN 1 2.8 17:39:40 10° SE 17:43:46 44° ENE 17:47:54 10° N
Cosmos 1606 Rocket 3.5 17:39:41 10° N 17:44:05 87° E 17:48:29 10° S
Cosmos 1892 Rocket 3.7 17:40:10 10° SSE 17:44:22 50° E 17:48:30 10° NNE
H-2A R/B 3.5 17:42:03 10° N 17:46:15 40° WNW 17:50:22 10° SW
CZ-2C R/B 3.0 17:44:04 10° SSE 17:49:16 81° ENE 17:54:48 10° NNW
Cosmos 1626 3.6 17:45:54 10° SW 17:49:21 38° WNW 17:52:51 10° N
CSL-04 Rocket 4.1 17:44:35 10° SE 17:49:28 37° ENE 17:54:27 10° N
Cosmos 1939 Rocket 3.6 17:45:52 10° S 17:49:55 57° W 17:53:59 10° NNW
Nadezhda 4 Rocket 4.3 17:45:06 10° SSE 17:50:58 43° E 17:56:48 10° NNE
CZ-4 R/B 4.4 17:47:15 10° SSE 17:51:23 88° ENE 17:55:33 10° NNW
CZ-4 R/B 1.3 17:51:50 10° SSE 17:55:57 68° ENE 18:00:00 10° N
SKYMED 2 3.6 17:51:44 10° N 17:56:07 80° WNW 18:00:26 10° SSW
MOS 1 Rocket 2.9 17:53:23 10° NNE 17:57:47 79° ESE 18:02:03 10° S
ATLAS 5 CENTAUR R/B 1.7 17:54:33 10° SW 17:58:33 68° NW 18:01:05 25° NNE
BREEZE-M DEB (TANK) 4.2 17:58:32 10° W 18:01:16 25° SW 18:02:38 15° S
CREW DRAGON DEMO-1 DEB 4.1 18:00:54 10° WNW 18:03:09 27° N 18:03:09 27° N
Meteor 2-10 Rocket 3.5 17:59:06 10° N 18:04:44 74° ENE 18:10:05 10° SSE
Cosmos 2058 Rocket 3.0 18:04:15 10° N 18:08:45 78° E 18:13:15 10° SSE
Cosmos 2228 4.1 18:04:53 10° NNW 18:08:57 45° W 18:13:00 10° SSW
SJ 16-02 2.6 18:06:17 10° SSE 18:08:46 26° SE 18:08:46 26° SE
H-2A R/B 1.8 18:05:34 10° SSE 18:10:29 75° ENE 18:15:34 10° N
Cosmos 1315 Rocket 4.4 18:06:55 10° NNW 18:10:34 36° W 18:14:15 10° SSW
Cosmos 2263 Rocket 2.9 18:06:21 10° SW 18:11:53 52° WNW 18:17:04 12° NNE
SAR-Lupe-4 3.4 18:12:53 50° NNE 18:13:44 86° ESE 18:17:19 10° SSW
Okean 1-7 Rocket 3.5 18:09:17 10° S 18:13:46 68° E 18:16:13 27° NNE
EXPRESS MD2 3.9 18:07:35 10° WNW 18:15:26 88° SSW 18:16:50 45° ESE
Meteor 1-24 Rocket 4.3 18:11:15 10° SSW 18:16:30 53° WNW 18:21:43 10° N
OPS 8737 4.4 18:17:08 10° NW 18:20:11 81° N 18:20:11 81° N
Cosmos 1689 Rocket 3.6 18:22:28 30° SSW 18:22:28 30° SSW 18:24:04 10° SSW
Cosmos 923 Rocket 4.3 18:17:30 10° N 18:22:20 44° NE 18:22:20 44° NE
SAR-Lupe-1 4.2 18:24:36 56° NNW 18:25:12 70° WNW 18:28:44 10° SSW
Cosmos 1818 4.0 18:20:30 10° S 18:25:19 41° SE 18:25:19 41° SE
Helios 1A Rocket 3.0 18:26:04 10° S 18:30:12 74° WSW 18:34:22 10° NNW
ISS -1.1 18:27:56 10° S 18:28:24 12° S 18:28:24 12° S
Meteor 2-13 Rocket 4.3 18:24:31 10° S 18:30:36 80° E 18:36:46 10° N
Cosmos 1680 Rocket 4.4 18:26:13 10° N 18:29:33 32° NNE 18:29:33 32° NNE
USA 267 3.4 18:29:51 42° E 18:31:34 53° SE 18:37:55 10° SSW
SJ-11-01 4.4 18:27:56 10° S 18:32:38 74° WSW 18:37:21 10° NNW
ARGOS 3.0 18:27:49 10° SSE 18:33:10 84° ENE 18:38:35 10° NNW
CSL-04 Debris 4.0 18:29:06 10° SSE 18:34:30 89° ENE 18:39:56 10° NNW
Cosmos 1844 4.0 18:30:27 10° S 18:35:08 46° SE 18:35:08 46° SE
Meteor 1-21 Rocket 4.0 18:31:25 10° S 18:36:54 69° E 18:38:13 51° NE
Lacrosse 5 2.0 18:32:52 10° NW 18:37:41 57° NNE 18:37:41 57° NNE
Okean-O 3.6 18:35:13 10° S 18:39:29 48° W 18:43:49 10° NNW
Cosmos 2082 Rocket 4.4 18:36:56 10° N 18:37:45 12° N 18:37:45 12° N
USA 281 4.4 18:42:04 24° NNE 18:42:04 24° NNE 18:45:47 10° N
CZ-2C R/B 2.8 18:43:09 55° SE 18:43:09 55° SE 18:47:53 10° S
ATLAS 2AS CENTAUR R/B 4.2 18:36:09 10° W 18:43:13 34° NNW 18:48:02 18° NNE
ERS-2 4.0 18:46:37 21° NNW 18:48:04 28° WNW 18:51:14 10° SW
CZ-4B R/B 4.5 18:46:45 10° NNW 18:48:36 14° WNW 18:50:26 10° W
Cosmos 158 Rocket 4.0 18:46:33 10° NNW 18:51:25 73° N 18:51:25 73° N
Cosmos 2195 Rocket 4.4 18:47:17 10° S 18:53:33 72° E 18:54:34 61° NE
USA 234 3.1 19:06:27 68° NE 19:06:40 69° NNE 19:13:11 10° NW
Cosmos 1844 Rocket 2.7 19:01:49 10° SSW 19:07:13 78° WSW 19:07:13 78° WSW
CZ-4C R/B 4.2 19:07:59 10° WNW 19:12:14 21° NNW 19:13:42 19° N
Cosmos 1092 Rocket 4.0 19:09:11 10° SSW 19:15:24 74° W 19:17:18 46° N
Iridium 4 Rocket 4.1 19:10:44 10° N 19:23:28 - S 19:15:36 58° NW
Meteor 2-8 Rocket 4.5 19:10:49 10° N 19:16:19 72° NW 19:16:19 72° NW
COSMOS 2455 3.5 19:17:01 10° SW 19:22:51 50° NW 19:23:37 47° NNW
Cosmos 2344 4.2 19:15:49 10° NW 19:24:56 69° NE 19:26:41 61° E
ATLAS 5 CENTAUR R/B 4.3 19:41:16 10° WNW 19:42:38 15° NW 19:42:38 15° NW
SJ 16-02 4.1 19:44:56 10° WSW 19:45:49 15° WSW 19:45:49 15° WSW
NOSS 3-1 (C) 4.4 19:50:52 10° NW 19:56:35 59° NW 19:56:35 59° NW
USA 267 4.4 20:17:12 37° W 20:17:12 37° W 20:21:04 10° WSW
